Regional Weather Roundup
Issued by NWS Pendleton, OR

Home | Current Version | Previous Version | Text Only | Print | Product List | Glossary On
Versions: 1 2 3 4 5 6 7 8 9 10 11 12 13 14 15 16 17 18 19 20 21 22 23 24 25 26 27 28 29 30 31 32 33 34 35 36 37 38 39 40 41 42 43 44 45 46 47 48 49 50
000
ASUS46 KPDT 262025
RWRPDT
PENDLETON REGIONAL WEATHER ROUNDUP
NATIONAL WEATHER SERVICE PENDLETON OREGON
100 PM PDT SAT JUL 26 2014

NOTE: FAIR INDICATES FEW OR NO CLOUDS BELOW 12,000 FEET WITH NO
SIGNIFICANT WEATHER AND/OR OBSTRUCTIONS TO VISIBILITY.

# INDICATES UNOFFICIAL STATION AND DATA

WAZ520-262110-
EAST SLOPES OF WASHINGTON CASCADES

CITY            SKY/WX      TMP DP  RH  WIND    PRES   REMARKS
#BUMPING DAM    N/A         72  N/A N/A S2      N/A
#CLE ELUM HS    N/A         81  44  27  CALM    30.07F
#CLE ELUM LAKE  N/A         77  45  32  W1      30.03F
#CLIFFDEL 2NW   N/A         80  40  24  CALM    N/A
#GLENWOOD       N/A         79  48  34  CALM    30.05F
#MANASTASH CYN  N/A         75  49  40  NW3     30.11S
#NELSON         N/A         79  44  29  CALM    30.05F
#NELSON 3SW     N/A         75  43  32  CALM    30.25F
#RONALD 2NW     N/A         74  48  40  SW2     30.01F
#TROUT LAKE 1NE N/A         78  46  32  SE3     30.05F
$$

WAZ521-262110-
SIMCOE HIGHLANDS

CITY            SKY/WX      TMP DP  RH  WIND    PRES   REMARKS
#BICKLETON HS   N/A         76  33  21  W7      30.18S
#CENTERVILLE 1SWN/A         80  47  31  CALM    29.99F
#GOLDENDALE 1NE N/A         80  35  20  W2      N/A
#GOLDENDALE 1S  N/A         83  45  26  NW3     30.07F
#GOLDENDALE 5WNWN/A         82  45  27  W3      30.02F
#GOODNOE HILLS  N/A         87  46  24  S9      30.01F
#LYLE 6NE       N/A         76  52  43  SW1     30.02F
$$

WAZ026-262110-
KITTITAS VALLEY

CITY            SKY/WX      TMP DP  RH  WIND    PRES   REMARKS
ELLENSBURG AP   SUNNY       84  46  27  VRB5    30.11F
#ELLENSBURG CWU N/A         79  48  34  NE3     30.00F
#ELLENSBURG 3NE N/A         76  50  40  E2      30.11F
#ELLENSBURG 1E  N/A         82  51  34  NE1     N/A
#THORP 6N       N/A         78  47  34  NE5     30.06F
$$

WAZ027-262110-
YAKIMA VALLEY

CITY            SKY/WX      TMP DP  RH  WIND    PRES   REMARKS
YAKIMA AIRPORT  SUNNY       84  41  22  E5      30.08F
YAKIMA-VAGABOND SUNNY       83  35  18  W8      30.10F
#COWICHE 1N     N/A         78  50  38  CALM    30.23F
#DONALD 2NE     N/A         67  43  42  SW1     30.30S
#GRANDVIEW      N/A         82  46  28  N2      30.05F
#MABTON         N/A         81  54  39  N6      30.06F
#MOXEE 2E       N/A         85  14   7  CALM    29.94F
#NACHES 2SW     N/A         80  55  42  S1      30.12F
#OUTLOOK DOT    N/A         N/A N/A N/A E1      N/A
#SELAH 8E       N/A         84  34  17  S7      N/A
#TERRACE HTS    N/A         85  47  27  CALM    30.01F
#TOPPENISH      N/A         80  51  36  NE1     29.96F
#WAPATO 4NE     N/A         67  43  42  SW1     30.30S
#W YAKIMA       N/A         82  46  28  S2      30.03F
#WHITE SWAN 5E  N/A         80  53  39  NE5     30.04F
#WILEY CITY 3W  N/A         81  43  26  CALM    30.10F
$$

WAZ028-262110-
LOWER COLUMBIA BASIN...WASHINGTON

CITY            SKY/WX      TMP DP  RH  WIND    PRES   REMARKS
HANFORD         SUNNY       87  43  22  S5      30.06F
PASCO           SUNNY       86  50  29  N5      30.06F
PROSSER AWOS    N/A         84  50  31  N8      30.08F
RICHLAND AWOS   SUNNY       84  43  24  E3      30.06F
#BASIN CITY 5SW N/A         84  57  40  CALM    30.08F
#BENTON CITY    N/A         82  50  33  N5      29.94F
#CONNELL 5N     N/A         86  46  25  SW6     30.05F
#CONNELL 5NW    N/A         81  49  33  SW1     30.02F
#ELTOPIA        N/A         88  51  28  S1      30.01F
#ELTOPIA 6NW    N/A         82  50  33  E2      29.05F
#KENNEWICK 3S   N/A         83  57  41  CALM    30.05F
#PASCO-BROADMOORN/A         88  54  31  NW1     29.93F
#PATERSON       N/A         82  54  38  CALM    30.03F
#PROSSER        N/A         84  46  27  NE2     30.03F
#SAGEMOOR 2W    N/A         80  54  41  W2      29.91F
#TOUCHET 2S     N/A         87  47  25  E1      30.02F
#WEST PASCO     N/A         87  58  38  CALM    30.05F
$$

WAZ029-262110-
FOOTHILLS OF THE BLUES...WASHINGTON

CITY            SKY/WX      TMP DP  RH  WIND    PRES   REMARKS
WALLA WALLA AP  SUNNY       86  40  20  NW6     30.09F
#COLLEGE PLACE  N/A         91  46  21  N3      30.06F HX 87
#DAYTON SCHOOL  N/A         85  38  19  S1      30.08F
#LOWDEN 2SE     N/A         86  50  29  CALM    30.01F
#PLEASANT VIEW 1N/A         85  42  22  NE5     30.07F
#PRESCOTT       N/A         88  41  19  CALM    30.02F
#SUDBURY        N/A         88  N/A N/A CALM    N/A
#WHITMAN COLLEGEN/A         84  47  28  NW3     30.08F
#WAITSBURG 8N   N/A         94  32  11  E3      29.94S HX 89
#WALLA WALLA 5E N/A         84  51  32  S15     N/A
#WALLA WALLA U  N/A         84  45  26  CALM    30.03F
#WHITMAN MISSIONN/A         86  51  30  CALM    30.04F
$$

WAZ030-262110-
BLUE MOUNTAINS...WASHINGTON

CITY            SKY/WX      TMP DP  RH  WIND    PRES   REMARKS
$$

ORZ009-041-WAZ024-262110-
COLUMBIA RIVER GORGE

CITY            SKY/WX      TMP DP  RH  WIND    PRES   REMARKS
HOOD RIVER AP   SUNNY       82  48  31  NW6     30.08F
THE DALLES AP   SUNNY       86  46  25  NW10    30.04F
#ARLINGTON AIRPON/A         84  39  20  W5      N/A
#ARLINGTON HS   N/A         85  42  22  SE3     29.93F
#CELILO DOT     N/A         87  52  30  N6      N/A
#MOSIER 1S      N/A         82  43  25  W6      30.12F
#MURDOCK        N/A         82  55  40  NW12    30.05F
#RUFUS DOT      N/A         83  54  37  SW6     N/A

$$

ORZ510-262110-
NORTH CENTRAL OREGON

CITY            SKY/WX      TMP DP  RH  WIND    PRES   REMARKS
#CHENOWITH 1W   N/A         77  43  30  W10     N/A
#COW CYN RST AREN/A         81  37  21  NW6     N/A
#DUFUR 9E       N/A         75  41  29  W3      30.09F
#GRASS VALLEY 1SN/A         81  45  28  NE1     30.06F
#KENT DOT       N/A         82  37  20  NE2     N/A
#MAUPIN SCHOOL  N/A         84  48  29  CALM    30.09F
#MORO SCHOOL    N/A         80  48  33  CALM    30.12F
#SHANIKO 5WSW   N/A         80  37  21  NW10    N/A
#SHANIKO 4NW    N/A         79  35  20  NE7     30.18F
#TYGH VALLEY 2NEN/A         81  48  32  SE3     30.03F
#WAPANITIA AIRPON/A         82  44  26  NE1     30.04F
#WASCO DOT      N/A         87  47  25  W7      N/A
#WASCO AIRPORT  N/A         82  41  23  N6      N/A
#WASCO 5NE      N/A         84  47  28  CALM    30.03F
$$

ORZ511-262110-
CENTRAL OREGON

CITY            SKY/WX      TMP DP  RH  WIND    PRES   REMARKS
BEND AIRPORT    SUNNY       79  39  24  E7      30.15F
MADRAS AIRPORT  SUNNY       79  41  26  N7      30.14F
REDMOND AIRPORT SUNNY       82  38  21  CALM    30.13F
#BEND 6E        N/A         79  41  26  CALM    29.91F
#BEND 1SW       N/A         78  45  31  N1      N/A
#BEND-AWBREY    N/A         80  46  30  SE2     29.99F
#BEND-KIM LN    N/A         82  49  32  N1      30.12F
#CROOKED RVR RANN/A         79  46  31  E6      30.00F
#CULVER         N/A         80  44  28  NW3     30.09F
#LAKE BILLY CHINN/A         79   2   5  NE3     30.13F
#POWELL BUTTE 3EN/A         75  47  37  W5      N/A
#PRINEVILLE 3N  N/A         80  47  31  CALM    29.95F


ORZ509-262110-
EAST SLOPES OF OREGON CASCADES

CITY            SKY/WX      TMP DP  RH  WIND    PRES   REMARKS
#BLUE BOX PASS  N/A         77  19  11  W2      N/A
#BLACK BUTTE RNCN/A         81  46  29  CALM    30.02F
#CAMP SHERMAN   N/A         86  46  25  CALM    30.01F
#LA PINE DOT    N/A         85  31  14  W6      N/A
#LA PINE 4NW    N/A         78  44  30  NE1     30.04F
#LAVA BUTTE DOT N/A         81  42  25  CALM    N/A
#SISTERS AIRPOR N/A         79  53  41  CALM    30.12F
#SISTERS ODOT   N/A         79  N/A N/A E2      N/A
#SISTERS 1NW    N/A         78  42  28  N7      N/A
#SISTERS 3N     N/A         78  46  32  NW3     N/A
#SUNRIVER       N/A         82  41  23  SE2     29.89F
#SUNRIVER AP    N/A         80  43  27  SE1     29.97F
#SUTTLE LK DOT  N/A         78  47  34  W2      N/A
#TUMALO 3W      N/A         78  43  29  E2      29.89F
#WANOGA BUTTE D N/A         71  29  21  W3      N/A

$$

ORZ044-262110-
LOWER COLUMBIA BASIN...OREGON

CITY            SKY/WX      TMP DP  RH  WIND    PRES   REMARKS
HERMISTON       SUNNY       85  49  29  VRB5    30.06F
#BOARDMAN SCHOOLN/A         69  53  57  CALM    30.03F
#BOARDMAN 3W    N/A         85  54  35  W1      29.76F
#BOARDMAN 8SW   N/A         82  50  33  N3      30.03F
#IONE SCHOOL    N/A         83  46  27  W2      30.06F
#IRRIGON 4NW    N/A         82  52  35  NW3     N/A
#UMATILLA SCHOOLN/A         88  58  36  CALM    30.12F
#UMATILLA       N/A         85  50  30  CALM    30.02F
$$

ORZ507-262110-
NORTHERN FOOTHILLS OF THE BLUES

CITY            SKY/WX      TMP DP  RH  WIND    PRES   REMARKS
PENDLETON AIRPT SUNNY       86  38  18  N8      30.08F
#ADAMS 3WNW     N/A         85  43  23  N5      30.01F
#ATHENA         N/A         83  47  28  N1      30.06F
#HELIX SCHOOL   N/A         81  45  28  E5      30.03F
#HELIX 3N       N/A         81  44  27  NE6     30.07F
#HOLDMAN 5SE    N/A         85  45  25  CALM    30.08F
#HOLDMAN 6E     N/A         87  45  23  NE2     29.85F
#M-F FERNDALE   N/A         92  54  28  CALM    30.06F HX 90
#M-F GROVE ELEM N/A         83  45  26  CALM    30.06F
#M-FREEWATER 5SEN/A         82  53  37  NW6     30.07F
#PDT AQUATIC CTRN/A         83  47  28  CALM    30.01S
#PENDLETON DNTN N/A         87  45  23  W3      30.01F
#PENDLETON 5NE  N/A         86  48  27  N1      30.03F
#PDT SUNRIDGE   N/A         86  45  24  CALM    30.08F
#PENDLETON 7NW  N/A         81  54  39  NW1     29.28F
#PILOT ROCK     N/A         81  47  30  N2      30.10F
#TUTUILLA       N/A         85  47  27  N2      29.97F
#UMAPINE 2E     N/A         84  51  32  NW1     30.03F
#WESTON SCHOOL  N/A         80  40  24  NE2     30.07F

$$

ORZ508-262110-
SOUTHERN FOOTHILLS OF THE BLUES

CITY            SKY/WX      TMP DP  RH  WIND    PRES   REMARKS
#AJAX           N/A         N/A N/A N/A E1      30.14F
#CONDON SCHOOL  N/A         80  41  25  CALM    30.09F
#CONDON 5W      N/A         76  37  24  N3      30.14F
#HEPPNER EOC    N/A         81  46  29  W5      29.98F
#HEPPNER 4NE    N/A         78  45  31  W2      30.03F
#LEXINGTON 2SE  N/A         84  47  28  W8      30.04F
#MIKKALO        N/A         85  41  21  N2      30.10F
#OLEX 4N        N/A         83  46  27  CALM    30.07F
#RUGGS 5NE      N/A         82  47  29  N8      30.33S
#RUGGS 2SW      N/A         79  42  27  N7      30.07F

$$

ORZ502-503-262110-
BLUE MOUNTAINS

CITY            SKY/WX      TMP DP  RH  WIND    PRES   REMARKS
MEACHAM         SUNNY       80  39  23  VRB3    30.18F
#BATTLE MTN DOT N/A         74  49  41  N6      N/A
#HARDMAN 10S    N/A         80  41  25  N7      30.22F
#HEPPNER 15SE   N/A         77  43  30  N5      30.12F
#LADD CYN SMT   N/A         79  37  22  NW9     N/A
#LADD CREEK ODOTN/A         79  49  35  NE10    N/A
#LONG CREEK HS  N/A         77  38  24  N7      30.09F
#PIKES PEAK     N/A         74  47  38  N3      27.99S
#TOLLGATE       N/A         71  39  31  N3      30.16S
#TROY SCHOOL    N/A         86  41  21  E1      29.86F
#UKIAH          N/A         84  40  21  W2      30.07F
#WESTON 4E      N/A         79  50  36  N1      29.98F
$$

ORZ505-262110-
JOHN DAY BASIN

CITY            SKY/WX      TMP DP  RH  WIND    PRES   REMARKS
JOHN DAY        SUNNY       89  31  13  N8      30.13F
#JOHN DAY KJDY  N/A         90  45  21  CALM    30.03F HX 86
#MONUMENT HS    N/A         86  40  20  CALM    29.85F
#MT. VERNON 5SE N/A         83  36  19  N3      30.10F
#WINLOCK        N/A         88  42  20  N5      30.20F
$$

ORZ506-262110-
OCHOCO AND JOHN DAY HIGHLANDS

CITY            SKY/WX      TMP DP  RH  WIND    PRES   REMARKS
#BUCK CREEK DOT N/A         86  39  19  S6      N/A
#HORSE RIDGE DO N/A         79  38  23  N8      N/A
#KEYES SMT DOT  N/A         79  41  26  E5      N/A
#PINE MTN OBS   N/A         70  40  34  W5      N/A
#PRAIRIE CITY   N/A         87  26  11  S1      29.88F
#SENECA 9NW     N/A         83  35  18  CALM    29.98F
$$

ORZ049-262110-
GRANDE RONDE VALLEY

CITY            SKY/WX      TMP DP  RH  WIND    PRES   REMARKS
LA GRANDE       SUNNY       81  39  22  N3      30.12F
#COVE           N/A         80  46  30  CALM    30.04F
#COVE SCHOOL    N/A         81  42  25  CALM    30.11F
#COVE 6NW       N/A         78  41  27  NW2     30.09F
#ELGIN 3N       N/A         84  37  19  S1      29.85F
#ELGIN 1E       N/A         82  43  25  CALM    N/A
#IMBLER SCHOOL  N/A         79  39  24  CALM    30.09F
#ISLAND CITY 4N N/A         83  45  26  N2      29.98F
#LADD CYN DOT   N/A         80  47  31  NW3     N/A
#UNION 1S       N/A         80  47  31  CALM    29.94F
$$

ORZ050-262110-
WALLOWA COUNTY

CITY            SKY/WX      TMP DP  RH  WIND    PRES   REMARKS
JOSEPH AIRPORT  SUNNY       81  32  17  NW7     30.21F
#ENTERPRISE HS  N/A         81  43  26  S2      30.16F
#IMNAHA SCHOOL  N/A         89  32  13  N1      30.00F
#IMNAHA 10S     N/A         90  39  17  NE3     30.10F HX 86
#JOSEPH 3N      N/A         78  42  28  NW1     30.19F
#JOSEPH 3W      N/A         79  33  19  E2      30.06F
#LOSTINE        N/A         82  37  20  N1      29.85F
#MT HOWARD 8000 N/A         60  34  37  NE2     30.45F
#PROMISE 1S     N/A         76  44  32  SW1     30.15F
#SHEEP RDG 7000 N/A         63  33  32  CALM    30.07F
#WALLOWA SCHOOL N/A         82  37  20  CALM    30.94F



$$



USA.gov is the U.S. government's official web portal to all federal, state and local government web resources and services.